Weather History for Milwaukee Timmerman, WI

Change the Weather History Date:

Friday, January 3, 2014

  Actual Average Record
Temperature  
Mean Temperature 6 °F -  
Max Temperature 19 °F 29 °F 53 °F (1998)
Min Temperature -7 °F 15 °F -14 °F (1979)
Degree Days  
Heating Degree Days 59    
Moisture  
Dew Point -2 °F    
Average Humidity 71    
Maximum Humidity 84    
Minimum Humidity 44    
Precipitation  
Precipitation 0.00 in - - ()
Sea Level Pressure  
Sea Level Pressure 30.17 in    
Wind  
Wind Speed 7 mph (SSW)    
Max Wind Speed 23 mph    
Max Gust Speed 32 mph    
Visibility 9 miles    
Events      
Averages and records for this station are not official NWS values.
T = Trace of Precipitation, MM = Missing Value Source: NWS Daily Summary

Daily Weather History Graph

Daily Weather History Graph

Search for Another Location

Airport:

Trip Planner

Search our weather history database for the weather conditions in past years. The results will help you decide how hot, cold, wet, or windy it might be!

Date:

Astronomy

Jan. 03, 2014 Rise Set
Actual Time 7:23 AM CST 4:29 PM CST
Civil Twilight 6:51 AM CST 5:01 PM CST
Nautical Twilight 6:15 AM CST 5:37 PM CST
Astronomical Twilight 5:41 AM CST 6:12 PM CST
Moon 8:45 AM CST (1/3) 7:44 PM CST (1/3)
Length of Visible Light 10h 10m
Length of Day
9h 05m
Waxing Crescent, 8% of the Moon is Illuminated
Jan 3
Waxing Crescent
Jan 7
First Quarter
Jan 15
Full
Jan 23
Last Quarter
Jan 30
New

Hourly Weather History & Observations

Time (CST) Temp. Windchill Dew Point Humidity Pressure Visibility Wind Dir Wind Speed Gust Speed Precip Events Conditions
12:15 AM -5.8 °F -14.5 °F -13.0 °F 71% 30.38 in 10.0 mi West 3.5 mph - N/A   Clear
12:35 AM -5.8 °F -18.4 °F -13.0 °F 71% 30.38 in 10.0 mi WNW 5.8 mph - N/A   Clear
12:55 AM -4.0 °F - -11.2 °F 71% 30.38 in 10.0 mi Calm Calm - N/A   Clear
1:15 AM -2.2 °F -10.4 °F -9.4 °F 71% 30.38 in 10.0 mi West 3.5 mph - N/A   Clear
1:35 AM -4.0 °F -12.4 °F -9.4 °F 78% 30.39 in 10.0 mi West 3.5 mph - N/A   Clear
1:55 AM -4.0 °F - -9.4 °F 78% 30.40 in 10.0 mi Calm Calm - N/A   Clear
2:15 AM -4.0 °F -12.4 °F -9.4 °F 78% 30.40 in 10.0 mi WNW 3.5 mph - N/A   Clear
2:35 AM -4.0 °F - -9.4 °F 78% 30.40 in 10.0 mi Calm Calm - N/A   Clear
2:55 AM -4.0 °F - -9.4 °F 78% 30.39 in 10.0 mi Calm Calm - N/A   Clear
3:15 AM -4.0 °F - -9.4 °F 78% 30.38 in 10.0 mi Calm Calm - N/A   Clear
3:35 AM -5.8 °F - -9.4 °F 84% 30.38 in 10.0 mi Calm Calm - N/A   Clear
3:55 AM -4.0 °F - -9.4 °F 78% 30.38 in 10.0 mi Calm Calm - N/A   Clear
4:15 AM -4.0 °F - -9.4 °F 78% 30.38 in 10.0 mi Calm Calm - N/A   Clear
4:35 AM -5.8 °F - -9.4 °F 84% 30.38 in 10.0 mi Calm Calm - N/A   Clear
4:55 AM -5.8 °F - -9.4 °F 84% 30.38 in 10.0 mi Calm Calm - N/A   Clear
5:15 AM -5.8 °F - -11.2 °F 77% 30.38 in 10.0 mi Calm Calm - N/A   Clear
5:35 AM -7.6 °F -16.5 °F -13.0 °F 77% 30.38 in 10.0 mi WSW 3.5 mph - N/A   Clear
5:55 AM -5.8 °F - -9.4 °F 84% 30.37 in 10.0 mi Calm Calm - N/A   Clear
6:15 AM -5.8 °F - -11.2 °F 77% 30.36 in 10.0 mi Calm Calm - N/A   Clear
6:35 AM -5.8 °F - -11.2 °F 77% 30.36 in 10.0 mi Calm Calm - N/A   Clear
6:45 AM -7.6 °F -18.8 °F -11.2 °F 84% 30.36 in 10.0 mi SW 4.6 mph - N/A   Clear
8:45 AM -2.2 °F -14.2 °F -9.4 °F 71% 30.35 in 10.0 mi WSW 5.8 mph - N/A   Clear
9:45 AM 6.8 °F -10.0 °F -7.6 °F 52% 30.33 in 10.0 mi SW 13.8 mph - N/A   Clear
10:45 AM 10.4 °F -6.6 °F -7.6 °F 44% 30.30 in 10.0 mi SW 16.1 mph 23.0 mph N/A   Overcast
11:45 AM 10.4 °F -4.1 °F -2.2 °F 57% 30.24 in 10.0 mi SSW 11.5 mph - N/A   Overcast
12:45 PM 12.2 °F -3.7 °F 1.4 °F 62% 30.19 in 10.0 mi SSW 15.0 mph 20.7 mph N/A   Overcast
1:45 PM 12.2 °F -4.3 °F 1.4 °F 62% 30.14 in 7.0 mi SSW 16.1 mph 25.3 mph N/A   Clear
2:45 PM 12.2 °F -5.8 °F 3.2 °F 67% 30.10 in 10.0 mi South 19.6 mph 27.6 mph N/A   Mostly Cloudy
3:45 PM 12.2 °F -5.3 °F 3.2 °F 67% 30.07 in 10.0 mi South 18.4 mph 25.3 mph N/A   Overcast
4:45 PM 15.8 °F -1.5 °F 5.0 °F 62% 30.02 in 10.0 mi South 20.7 mph 27.6 mph N/A   Mostly Cloudy
5:45 PM 15.8 °F -0.2 °F 6.8 °F 68% 29.99 in 10.0 mi South 17.3 mph 27.6 mph N/A   Clear
6:45 PM 15.8 °F -0.2 °F 6.8 °F 68% 29.95 in 5.0 mi South 17.3 mph 28.8 mph N/A   Haze
7:45 PM 15.8 °F -1.5 °F 6.8 °F 68% 29.92 in 5.0 mi South 20.7 mph 31.1 mph N/A   Haze
8:15 PM 17.6 °F 0.1 °F 8.6 °F 68% 29.90 in 7.0 mi South 23.0 mph 28.8 mph N/A   Clear
8:35 PM 17.6 °F 2.2 °F 8.6 °F 68% 29.88 in 7.0 mi South 17.3 mph 28.8 mph N/A   Clear
8:45 PM 15.8 °F -1.5 °F 8.6 °F 73% 29.87 in 7.0 mi South 20.7 mph 26.5 mph N/A   Clear
8:55 PM 17.6 °F 1.7 °F 10.4 °F 73% 29.87 in 7.0 mi South 18.4 mph 28.8 mph N/A   Clear
9:15 PM 17.6 °F 0.9 °F 10.4 °F 73% 29.86 in 5.0 mi South 20.7 mph 29.9 mph N/A   Haze
9:35 PM 17.6 °F 0.1 °F 10.4 °F 73% 29.85 in 7.0 mi South 23.0 mph 29.9 mph N/A   Clear
9:55 PM 19.4 °F 4.1 °F 10.4 °F 68% 29.86 in 7.0 mi SSW 18.4 mph 32.2 mph N/A   Clear
10:15 PM 19.4 °F 6.0 °F 10.4 °F 68% 29.86 in 10.0 mi SSW 13.8 mph 27.6 mph N/A   Clear
10:35 PM 19.4 °F 3.6 °F 10.4 °F 68% 29.85 in 10.0 mi SSW 19.6 mph 26.5 mph N/A   Clear
10:55 PM 19.4 °F 6.0 °F 10.4 °F 68% 29.84 in 10.0 mi SSW 13.8 mph 24.2 mph N/A   Clear
11:15 PM 19.4 °F 5.0 °F 10.4 °F 68% 29.83 in 10.0 mi South 16.1 mph 24.2 mph N/A   Clear
11:35 PM 19.4 °F 5.5 °F 10.4 °F 68% 29.83 in 10.0 mi SSW 15.0 mph 23.0 mph N/A   Clear
11:55 PM 19.4 °F 5.5 °F 10.4 °F 68% 29.81 in 10.0 mi SSW 15.0 mph 19.6 mph N/A   Clear